User: anonymous   Login
Location: Caltech
(34.1382°N, 118.1253°W)
Time: 08:20:30
(UTC-07:00)
Language:

Tiros 1 despin weight - Orbit

View from above orbital plane
View from above orbital plane
View from above satellite
View from above satellite

Ground track
Ground track

The orbit data is extracted from the following two-line orbital elements,

1 00115U 60002D   15212.39307635  .00000482  00000-0  86690-4 0  9999
2 00115 048.1658 202.1895 0036091 315.1213 044.6783 14.82227860948309
Epoch (UTC): 31 July 2015 09:26:01
Eccentricity: 0.0036091
inclination: 48.1658°
perigee height: 597 km
apogee height: 647 km
right ascension of ascending node: 202.1895°
argument of perigee: 315.1213°
revolutions per day: 14.82227860
mean anomaly at epoch: 44.6783°
orbit number at epoch: 94830

The dashed part of the orbit path shows where the satellite is in the earth's shadow,  

DLR